Volver al catálogo

STARLINK-36199

ActivoComunicacionesVLEO
NORAD 67213·PAYLOAD·🇺🇸 United States

Lanzado Dec 17, 2025 desde Vandenberg Space Force Base

Loading…

Próximos Pases (próximas 24 horas)

TLE

ActualizadoSource: CelesTrak SupGP

Época: Sep 15, 2026, 03:20 UTC

1 67213C 25304X   26258.13937500 -.00035407  00000+0 -29676-2 0  2584
2 67213  70.0010  56.6071 0003071 268.6789 201.6085 14.98344772    13

Sigue STARLINK-36199 en tiempo real con AllMySat

Download on the App Store